Hourly Data Report for July 25, 2017

All times are specified in Local Standard Time (LST). Add 1 hour to adjust for Daylight Saving Time where and when it is observed.

GRAND ETANG
NOVA SCOTIA

46°33'00.000" N
61°03'00.000" W
12.80 m
8201969
WZQ

Related Data

No related data is available for this station

Download Data

Hourly Data (July 2017)
Hourly Data Report for July 25, 2017
Temp Definition
°C
Dew Point Temp Definition
°C
Rel Hum Definition
%
Wind Dir Definition
10's deg

Wind Spd Definition
km/h
Visibility Definition
km
Stn Press Definition
kPa
Hmdx Definition


Wind Chill Definition


Weather Definition


TIME
00:00 17.2 13.5 79 14 21   101.78     LegendNANA
01:00 17.2 14.6 85 14 22   101.75     LegendNANA
02:00 16.8 14.7 87 12 22   101.71     LegendNANA
03:00 16.3 14.7 90 13 14   101.69     LegendNANA
04:00 15.9 14.2 90 13 8   101.72     LegendNANA
05:00 16.2 14.3 88 36 8   101.66     LegendNANA
06:00 16.7 13.8 83 20 7   101.61     LegendNANA
07:00 16.9 14.5 86 3 6   101.62     LegendNANA
08:00 17.3 15.3 88 4 13   101.66     LegendNANA
09:00 17.8 15.1 84 3 10   101.66     LegendNANA
10:00 17.5 15.0 85 3 16   101.65     LegendNANA
11:00 19.2 15.8 81 5 13   101.61     LegendNANA
12:00 19.5 15.3 77 4 11   101.58     LegendNANA
13:00 20.2 15.2 73 5 19   101.55     LegendNANA
14:00 20.1 15.8 76 34 16   101.53 25   LegendNANA
15:00 20.5 17.0 80 33 19   101.54 26   LegendNANA
16:00 20.8 14.6 68 35 9   101.55 25   LegendNANA
17:00 20.1 15.1 73 36 22   101.56     LegendNANA
18:00 21.5 16.2 72 35 12   101.61 26   LegendNANA
19:00 18.9 15.3 79 2 19   101.64     LegendNANA
20:00 17.6 14.1 80 8 4   101.66     LegendNANA
21:00 16.3 13.0 81 5 14   101.75     LegendNANA
22:00 15.3 10.4 72 5 13   101.74     LegendNANA
23:00 14.1 9.7 75 7 7   101.76     LegendNANA

Notes on Data Quality.

Legend

  • E = Estimated
  • M = Missing
  • NA = Not Available
  • ‡ = Partner data that is not subject to review by the National Climate Archives
Date modified: